Date String (YYYY-MM-DD hh:mm:ss) UTC,Instrument flags,Ambient pressure (hPa),Sample flow (lpm),Bypass flow (lpm),Sample temperature (°C),Ambient temperature (°C),ASC tube jacket temperature (°C),LED temperature (°C),Box temperature (°C),Sample RH (%),Span deviation,Mass concentration (μg/m³),Mass concentration (μg/m³),Mass concentration (μg/m³)
DateTimeUTC,F1_M11,P_M11,Q1_M11,Q2_M11,T1_M11,T2_M11,T3_M11,T4_M11,T5_M11,U1_M11,ZSPAN_M11,X0_M11,X2_M11,X1_M11
2022-07-18 11:00:00,,0827.5,5.01,0.00,29.6,28.4,00.0,38.3,31.5,25.4,0000.0,0014.79,0007.30,0006.43
2022-07-18 11:01:00,,0827.5,4.99,0.00,29.6,28.5,00.0,38.3,31.6,25.4,0000.0,0014.82,0007.31,0006.44
2022-07-18 11:02:00,,0827.5,5.01,0.00,29.6,28.6,00.0,38.4,31.6,25.5,0000.0,0015.03,0007.31,0006.42
2022-07-18 11:03:00,,0827.5,4.99,0.00,29.7,28.6,00.0,38.4,31.6,25.4,0000.0,0015.34,0007.33,0006.41
2022-07-18 11:04:00,,0827.5,5.01,0.00,29.7,28.7,00.0,38.4,31.7,25.5,0000.0,0015.76,0007.36,0006.41
2022-07-18 11:05:00,,0827.5,4.99,0.00,29.8,28.8,00.0,38.4,31.7,25.7,0000.0,0015.45,0007.41,0006.40
2022-07-18 11:06:00,,0827.5,5.01,0.00,29.8,28.8,00.0,38.5,31.7,25.6,0000.0,0014.35,0007.35,0006.39
2022-07-18 11:07:00,,0827.6,4.99,0.00,29.8,28.9,00.0,38.5,31.8,25.5,0000.0,0014.19,0007.30,0006.39
2022-07-18 11:08:00,,0827.5,5.01,0.00,29.8,28.9,00.0,38.5,31.8,25.4,0000.0,0014.10,0007.29,0006.38
2022-07-18 11:09:00,,0827.5,5.00,0.00,29.9,28.7,00.0,38.5,31.9,25.4,0000.0,0013.57,0007.26,0006.39
2022-07-18 11:10:00,,0827.5,4.99,0.00,29.9,27.8,00.0,38.4,31.7,25.4,0000.0,0013.40,0007.28,0006.40
2022-07-18 11:11:00,,0827.5,5.00,0.00,29.8,27.1,00.0,38.4,31.6,25.3,0000.0,0012.93,0007.31,0006.42
2022-07-18 11:12:00,,0827.6,5.00,0.00,29.7,27.0,00.0,38.4,31.4,25.5,0000.0,0013.12,0007.37,0006.42
2022-07-18 11:13:00,,0827.7,5.01,0.00,29.6,27.0,00.0,38.4,31.3,25.8,0000.0,0013.30,0007.41,0006.44
2022-07-18 11:14:00,,0827.6,5.00,0.00,29.6,27.2,00.0,38.4,31.3,25.8,0000.0,0013.30,0007.38,0006.44
2022-07-18 11:15:00,,0827.6,5.00,0.00,29.5,27.4,00.0,38.3,31.3,25.6,0000.0,0012.55,0007.35,0006.45
2022-07-18 11:16:00,,0827.6,5.00,0.00,29.5,27.5,00.0,38.3,31.3,25.5,0000.0,0012.21,0007.32,0006.46
2022-07-18 11:17:00,,0827.5,5.00,0.00,29.5,27.7,00.0,38.3,31.3,25.5,0000.0,0012.49,0007.32,0006.46
2022-07-18 11:18:00,,0827.5,4.99,0.00,29.5,27.9,00.0,38.3,31.4,25.4,0000.0,0013.08,0007.34,0006.44
2022-07-18 11:19:00,,0827.6,5.00,0.00,29.5,28.0,00.0,38.3,31.4,25.4,0000.0,0013.32,0007.33,0006.42
2022-07-18 11:20:00,,0827.7,5.00,0.00,29.5,28.1,00.0,38.3,31.4,25.5,0000.0,0013.62,0007.38,0006.40
2022-07-18 11:21:00,,0827.7,4.99,0.00,29.6,28.2,00.0,38.3,31.5,25.7,0000.0,0013.81,0007.36,0006.38
2022-07-18 11:22:00,,0827.7,5.00,0.00,29.6,28.3,00.0,38.3,31.5,25.5,0000.0,0013.78,0007.31,0006.35
2022-07-18 11:23:00,,0827.7,5.01,0.00,29.6,28.4,00.0,38.4,31.5,25.3,0000.0,0013.70,0007.27,0006.35
2022-07-18 11:24:00,,0827.7,4.99,0.00,29.6,28.5,00.0,38.4,31.6,25.2,0000.0,0013.49,0007.26,0006.34
2022-07-18 11:25:00,,0827.7,4.99,0.00,29.7,28.6,00.0,38.4,31.6,25.2,0000.0,0013.61,0007.27,0006.33
2022-07-18 11:26:00,,0827.7,5.01,0.00,29.7,28.6,00.0,38.4,31.7,25.3,0000.0,0014.22,0007.24,0006.33
2022-07-18 11:27:00,,0827.7,4.99,0.00,29.7,28.7,00.0,38.4,31.7,25.4,0000.0,0014.49,0007.28,0006.32
2022-07-18 11:28:00,,0827.7,5.01,0.00,29.8,28.8,00.0,38.5,31.7,25.2,0000.0,0014.24,0007.30,0006.32
2022-07-18 11:29:00,,0827.7,4.99,0.00,29.8,28.8,00.0,38.5,31.8,25.2,0000.0,0013.80,0007.31,0006.33
2022-07-18 11:30:00,,0827.7,5.01,0.00,29.8,28.9,00.0,38.5,31.8,25.2,0000.0,0013.62,0007.32,0006.35
2022-07-18 11:31:00,,0827.7,4.99,0.00,29.9,28.9,00.0,38.5,31.8,25.1,0000.0,0013.29,0007.28,0006.37
2022-07-18 11:32:00,,0827.7,5.00,0.00,29.9,28.7,00.0,38.5,31.8,25.1,0000.0,0013.08,0007.28,0006.37
2022-07-18 11:33:00,,0827.7,5.01,0.00,29.9,27.9,00.0,38.5,31.7,25.1,0000.0,0012.87,0007.31,0006.39
2022-07-18 11:34:00,,0827.7,5.00,0.00,29.8,27.6,00.0,38.4,31.7,25.3,0000.0,0012.99,0007.33,0006.41
2022-07-18 11:35:00,,0827.7,4.99,0.00,29.8,27.6,00.0,38.4,31.5,25.4,0000.0,0013.34,0007.31,0006.41
2022-07-18 11:36:00,,0827.7,5.01,0.00,29.7,27.7,00.0,38.4,31.5,25.5,0000.0,0013.32,0007.38,0006.43
2022-07-18 11:37:00,,0827.7,5.01,0.00,29.7,27.8,00.0,38.4,31.5,25.5,0000.0,0013.85,0007.43,0006.44
2022-07-18 11:38:00,,0827.7,4.99,0.00,29.7,27.9,00.0,38.4,31.5,25.5,0000.0,0014.34,0007.45,0006.44
2022-07-18 11:39:00,,0827.7,5.00,0.00,29.7,28.1,00.0,38.4,31.5,25.6,0000.0,0014.42,0007.47,0006.44
2022-07-18 11:40:00,,0827.7,5.00,0.00,29.7,28.2,00.0,38.5,31.6,25.6,0000.0,0014.57,0007.47,0006.46
2022-07-18 11:41:00,,0827.7,5.01,0.00,29.7,28.3,00.0,38.5,31.6,25.6,0000.0,0015.65,0007.48,0006.47
2022-07-18 11:42:00,,0827.8,5.00,0.00,29.7,28.4,00.0,38.5,31.6,25.6,0000.0,0016.21,0007.52,0006.47
2022-07-18 11:43:00,,0827.8,4.99,0.00,29.7,28.5,00.0,38.5,31.7,25.6,0000.0,0016.62,0007.55,0006.48
2022-07-18 11:44:00,,0827.7,5.01,0.00,29.8,28.6,00.0,38.5,31.7,25.5,0000.0,0016.58,0007.55,0006.49
2022-07-18 11:45:00,,0827.7,4.99,0.00,29.8,28.7,00.0,38.5,31.7,25.5,0000.0,0016.46,0007.57,0006.50
2022-07-18 11:46:00,,0827.8,5.01,0.00,29.8,28.7,00.0,38.5,31.8,25.5,0000.0,0016.78,0007.59,0006.51
2022-07-18 11:47:00,,0827.9,4.99,0.00,29.8,28.8,00.0,38.5,31.8,25.5,0000.0,0016.78,0007.54,0006.52
2022-07-18 11:48:00,,0827.8,5.00,0.00,29.9,28.9,00.0,38.6,31.9,25.4,0000.0,0015.81,0007.55,0006.54
2022-07-18 11:49:00,,0827.8,5.01,0.00,29.9,28.7,00.0,38.6,31.9,25.4,0000.0,0015.65,0007.57,0006.56
2022-07-18 11:50:00,,0827.8,4.99,0.00,29.9,27.9,00.0,38.5,31.8,25.4,0000.0,0015.75,0007.55,0006.57
2022-07-18 11:51:00,,0827.7,5.01,0.00,29.9,27.6,00.0,38.5,31.7,25.4,0000.0,0015.53,0007.59,0006.58
2022-07-18 11:52:00,,0827.7,4.99,0.00,29.8,27.6,00.0,38.5,31.6,25.5,0000.0,0014.27,0007.57,0006.59
2022-07-18 11:53:00,,0827.8,4.99,0.00,29.8,27.7,00.0,38.5,31.5,25.6,0000.0,0013.92,0007.58,0006.59
2022-07-18 11:54:00,,0827.8,5.01,0.00,29.7,27.8,00.0,38.5,31.5,25.7,0000.0,0014.08,0007.59,0006.60
2022-07-18 11:55:00,,0827.7,5.00,0.00,29.7,27.9,00.0,38.5,31.5,25.6,0000.0,0014.53,0007.61,0006.60
2022-07-18 11:56:00,,0827.7,4.99,0.00,29.7,28.1,00.0,38.5,31.5,25.7,0000.0,0014.48,0007.61,0006.58
2022-07-18 11:57:00,,0827.9,4.99,0.00,29.7,28.2,00.0,38.5,31.6,25.8,0000.0,0014.12,0007.61,0006.58
2022-07-18 11:58:00,,0827.7,5.00,0.00,29.7,28.3,00.0,38.5,31.6,25.8,0000.0,0013.91,0007.62,0006.60
2022-07-18 11:59:00,,0827.8,4.99,0.00,29.8,28.4,00.0,38.5,31.6,25.9,0000.0,0013.91,0007.61,0006.60
